Location: Rowland
(34.5359°N, 79.2929°W)
Time: 16:09:06
(UTC+00:00)

A-11 Canister half - Pass Details

Date: 07 October 2022
Orbit: 1515 x 1684 km, 47.2° (Epoch: 06 December)

Event Time Altitude Azimuth Distance (km) Brightness Sun altitude
Exits shadow 08:36:09 25° 176° (S) 2,682 10.1 -33.4°
Drops below altitude 10° 08:39:50 10° 162° (SSE) 3,674 11.0 -32.7°
Sets 08:43:05 0° 155° (SSE) 4,665 11.6 -32.1°
